• Em Portugal
  • Lista de países
  • Para 7 dias
  • Temperatura da água
  • Mapas de satélite
  • Mapa do tempo
  • Widgets de tempo
  • user-avatar
    Iniciar Sessão

    Previsão horária em Rybaltovo

    Hoje, 14 Novembro, Quarta-feira

    Tempo Temperatura Precipitação Vento Pressão Humidade
    00:00 -5°C° 0 mm 8 m/s 752 mmHg 57%
    01:00 -5°C° 0 mm 8 m/s 751 mmHg 58%
    02:00 -4°C° 0 mm 7 m/s 750 mmHg 60%
    03:00 -4°C° 0.4 mm 7 m/s 749 mmHg 65%
    04:00 -6°C° 0.4 mm 7 m/s 749 mmHg 69%
    05:00 -6°C° 0.4 mm 7 m/s 748 mmHg 73%
    06:00 -6°C° 0.7 mm 7 m/s 748 mmHg 77%
    07:00 -6°C° 0.7 mm 7 m/s 748 mmHg 80%
    08:00 -6°C° 0 mm 7 m/s 748 mmHg 85%
    09:00 -5°C° 0.8 mm 6 m/s 747 mmHg 86%
    10:00 -5°C° 0.8 mm 6 m/s 747 mmHg 88%
    11:00 -5°C° 0.8 mm 6 m/s 747 mmHg 90%
    12:00 -5°C° 0.3 mm 5 m/s 747 mmHg 90%
    13:00 -5°C° 0.3 mm 5 m/s 747 mmHg 90%
    14:00 -4°C° 0.3 mm 4 m/s 747 mmHg 91%
    15:00 -4°C° 0.2 mm 4 m/s 747 mmHg 91%
    16:00 -4°C° 0.2 mm 3 m/s 748 mmHg 92%
    17:00 -3°C° 0.2 mm 2 m/s 748 mmHg 93%
    18:00 -3°C° 0.1 mm 2 m/s 748 mmHg 93%
    19:00 -3°C° 0.1 mm 2 m/s 749 mmHg 94%
    20:00 -1°C° 0.1 mm 1 m/s 749 mmHg 94%
    21:00 -1°C° 0 mm 1 m/s 749 mmHg 95%
    22:00 -1°C° 0 mm 1 m/s 750 mmHg 95%
    23:00 -1°C° 0 mm 1 m/s 750 mmHg 95%

    Amanhã, 15 Novembro, Quinta-feira

    Tempo Temperatura Precipitação Vento Pressão Humidade
    00:00 -1°C° 0 mm 1 m/s 750 mmHg 95%
    01:00 -1°C° 0 mm 1 m/s 751 mmHg 95%
    02:00 -2°C° 0 mm 1 m/s 751 mmHg 95%
    03:00 -1°C° 0 mm 1 m/s 752 mmHg 95%
    04:00 -1°C° 0 mm 1 m/s 752 mmHg 95%
    05:00 -1°C° 0 mm 1 m/s 752 mmHg 95%
    06:00 -1°C° 0 mm 1 m/s 753 mmHg 95%
    07:00 -1°C° 0 mm 1 m/s 753 mmHg 95%
    08:00 -1°C° 0 mm 1 m/s 754 mmHg 95%
    09:00 0°C° 0 mm 1 m/s 754 mmHg 95%
    10:00 0°C° 0 mm 1 m/s 755 mmHg 94%
    11:00 +1°C° 0 mm 1 m/s 755 mmHg 94%
    12:00 +1°C° 0 mm 1 m/s 756 mmHg 94%
    13:00 +1°C° 0 mm 1 m/s 756 mmHg 95%
    14:00 +1°C° 0 mm 1 m/s 756 mmHg 96%
    15:00 +1°C° 0 mm 1 m/s 757 mmHg 96%
    16:00 +1°C° 0 mm 1 m/s 757 mmHg 96%
    17:00 +1°C° 0 mm 1 m/s 757 mmHg 96%
    18:00 +1°C° 0 mm 1 m/s 758 mmHg 96%
    19:00 -1°C° 0 mm 2 m/s 758 mmHg 96%
    20:00 -1°C° 0 mm 2 m/s 759 mmHg 96%
    21:00 -1°C° 0 mm 2 m/s 759 mmHg 96%
    22:00 -1°C° 0 mm 2 m/s 760 mmHg 95%
    23:00 +1°C° 0 mm 1 m/s 760 mmHg 95%

    Depois de amanhã, 16 Novembro, Sexta-feira

    Tempo Temperatura Precipitação Vento Pressão Humidade
    00:00 +1°C° 0 mm 1 m/s 760 mmHg 95%
    01:00 +1°C° 0 mm 1 m/s 761 mmHg 95%
    02:00 +1°C° 0 mm 1 m/s 761 mmHg 95%
    03:00 0°C° 0 mm 1 m/s 761 mmHg 94%
    04:00 0°C° 0 mm 1 m/s 761 mmHg 94%
    05:00 0°C° 0 mm 1 m/s 762 mmHg 94%
    06:00 -1°C° 0 mm 1 m/s 762 mmHg 94%
    07:00 -1°C° 0 mm 1 m/s 762 mmHg 94%
    08:00 -3°C° 0 mm 2 m/s 763 mmHg 93%
    09:00 -1°C° 0 mm 1 m/s 763 mmHg 92%
    10:00 0°C° 0 mm 1 m/s 763 mmHg 90%
    11:00 +1°C° 0 mm 1 m/s 763 mmHg 88%
    12:00 +1°C° 0 mm 1 m/s 763 mmHg 89%
    13:00 +1°C° 0 mm 1 m/s 764 mmHg 89%
    14:00 +2°C° 0 mm 1 m/s 764 mmHg 89%
    15:00 +1°C° 0 mm 1 m/s 764 mmHg 89%
    16:00 0°C° 0 mm 1 m/s 764 mmHg 89%
    17:00 -3°C° 0 mm 2 m/s 764 mmHg 89%
    18:00 -1°C° 0 mm 1 m/s 764 mmHg 88%
    19:00 -2°C° 0 mm 1 m/s 764 mmHg 87%
    20:00 -2°C° 0 mm 1 m/s 764 mmHg 86%
    21:00 -2°C° 0 mm 1 m/s 764 mmHg 85%
    22:00 -2°C° 0 mm 1 m/s 764 mmHg 84%
    23:00 -2°C° 0 mm 1 m/s 764 mmHg 82%

    17 Novembro, Sábado

    Tempo Temperatura Precipitação Vento Pressão Humidade
    00:00 -3°C° 0 mm 1 m/s 764 mmHg 81%
    01:00 -4°C° 0 mm 0 m/s 764 mmHg 79%
    02:00 -4°C° 0 mm 0 m/s 764 mmHg 78%
    03:00 -4°C° 0 mm 0 m/s 764 mmHg 77%
    04:00 -4°C° 0 mm 0 m/s 764 mmHg 77%
    05:00 -4°C° 0 mm 0 m/s 764 mmHg 77%
    06:00 -3°C° 0 mm 1 m/s 764 mmHg 77%
    07:00 -3°C° 0 mm 1 m/s 764 mmHg 78%
    08:00 -3°C° 0 mm 1 m/s 764 mmHg 78%
    09:00 -2°C° 0 mm 1 m/s 763 mmHg 78%
    10:00 -1°C° 0 mm 1 m/s 763 mmHg 77%
    11:00 0°C° 0 mm 1 m/s 763 mmHg 76%
    12:00 +1°C° 0 mm 1 m/s 762 mmHg 79%
    13:00 -1°C° 0 mm 2 m/s 762 mmHg 81%
    14:00 -1°C° 0 mm 2 m/s 761 mmHg 84%
    15:00 -2°C° 0 mm 2 m/s 761 mmHg 86%
    16:00 -2°C° 0 mm 2 m/s 760 mmHg 89%
    17:00 -4°C° 0 mm 3 m/s 760 mmHg 91%
    18:00 -2°C° 0 mm 3 m/s 759 mmHg 92%
    19:00 -2°C° 0 mm 3 m/s 759 mmHg 93%
    20:00 -2°C° 0 mm 3 m/s 758 mmHg 93%
    21:00 -1°C° 0 mm 3 m/s 758 mmHg 94%
    22:00 -1°C° 0 mm 3 m/s 757 mmHg 94%
    23:00 -2°C° 0 mm 4 m/s 756 mmHg 94%

    18 Novembro, Domingo

    Tempo Temperatura Precipitação Vento Pressão Humidade
    00:00 -2°C° 0 mm 4 m/s 756 mmHg 95%
    01:00 -1°C° 0 mm 4 m/s 755 mmHg 95%
    02:00 -1°C° 0 mm 4 m/s 754 mmHg 95%
    03:00 -1°C° 0.1 mm 4 m/s 753 mmHg 96%
    04:00 -1°C° 0.1 mm 4 m/s 753 mmHg 96%
    05:00 -1°C° 0.1 mm 5 m/s 752 mmHg 96%
    06:00 -1°C° 0.1 mm 4 m/s 751 mmHg 96%
    07:00 -1°C° 0.1 mm 4 m/s 751 mmHg 97%
    08:00 0°C° 0.1 mm 4 m/s 750 mmHg 97%
    09:00 0°C° 0.1 mm 4 m/s 750 mmHg 97%
    10:00 0°C° 0.1 mm 4 m/s 749 mmHg 97%
    11:00 0°C° 0.1 mm 4 m/s 749 mmHg 97%
    12:00 0°C° 0.1 mm 4 m/s 749 mmHg 96%
    13:00 0°C° 0.1 mm 4 m/s 748 mmHg 96%
    14:00 0°C° 0.1 mm 5 m/s 748 mmHg 95%
    15:00 0°C° 0.2 mm 5 m/s 748 mmHg 94%
    16:00 0°C° 0.2 mm 5 m/s 748 mmHg 93%
    17:00 -1°C° 0.2 mm 5 m/s 747 mmHg 92%
    18:00 -1°C° 0.1 mm 5 m/s 747 mmHg 92%
    19:00 -1°C° 0.1 mm 5 m/s 747 mmHg 92%
    20:00 -1°C° 0.1 mm 5 m/s 747 mmHg 92%
    21:00 -1°C° 0.1 mm 5 m/s 747 mmHg 91%
    22:00 -1°C° 0.1 mm 5 m/s 747 mmHg 91%
    23:00 -1°C° 0.1 mm 5 m/s 747 mmHg 91%

    19 Novembro, Segunda-feira

    Tempo Temperatura Precipitação Vento Pressão Humidade
    00:00 -1°C° 0.1 mm 5 m/s 747 mmHg 90%
    01:00 -1°C° 0.1 mm 6 m/s 747 mmHg 90%
    02:00 -1°C° 0.1 mm 6 m/s 747 mmHg 89%
    03:00 -1°C° 0.2 mm 6 m/s 747 mmHg 89%
    04:00 -1°C° 0.2 mm 6 m/s 747 mmHg 89%
    05:00 -2°C° 0.2 mm 6 m/s 747 mmHg 89%
    06:00 -2°C° 0.1 mm 6 m/s 748 mmHg 89%
    07:00 -2°C° 0.1 mm 6 m/s 748 mmHg 89%
    08:00 -2°C° 0.1 mm 6 m/s 748 mmHg 89%
    09:00 -2°C° 0 mm 6 m/s 749 mmHg 89%
    10:00 -1°C° 0 mm 5 m/s 749 mmHg 89%
    11:00 -1°C° 0 mm 5 m/s 749 mmHg 89%
    12:00 -1°C° 0.1 mm 5 m/s 749 mmHg 89%
    13:00 0°C° 0.1 mm 5 m/s 749 mmHg 88%
    14:00 0°C° 0.1 mm 5 m/s 750 mmHg 88%
    15:00 -1°C° 0.1 mm 5 m/s 750 mmHg 88%
    16:00 -1°C° 0.1 mm 5 m/s 750 mmHg 88%
    17:00 -2°C° 0.1 mm 5 m/s 750 mmHg 88%
    18:00 -2°C° 0 mm 5 m/s 750 mmHg 88%
    19:00 -2°C° 0 mm 5 m/s 750 mmHg 88%
    20:00 -2°C° 0 mm 5 m/s 750 mmHg 88%
    21:00 -2°C° 0.1 mm 5 m/s 750 mmHg 88%
    22:00 -2°C° 0.1 mm 5 m/s 751 mmHg 88%
    23:00 -2°C° 0.1 mm 5 m/s 751 mmHg 88%
    Mostrar mais